Погода в Джамшедпуре

Индия     22°46′26″N   86°12′36″E
темп.,
°C
ветер,
м/с
пор.,
м/с
влажн.,
%
обл.,
%
осадки,
мм/ч
давл.,
гПа
погр.,
м
16 апреля, пт
пт1623:30+31юз5122546 0.0 1006485
02:30+29з2528100 0.0 1005152
05:30+28з2330100 0.0 100683
08:30+34зюз342017 0.0 1009639
11:30+39юз23105 0.0 10073686
14:30+41юз23815 0.0 10034554
17:30+39зюз33912 0.0 10021698
20:30+32ю48290 0.0 1006483
17 апреля, сб
сб1723:30+30ююз49300 0.0 1007431
02:30+28юз5134372 0.0 1006479
05:30+27зюз4115184 0.0 1007449
08:30+33зюз69322 0.0 1008645
11:30+40з34140 0.0 10063091
14:30+42ююз351048 0.0 10024632
17:30+35юв451851 0.0 1005285
20:30+31юв36415 0.0 1006220
18 апреля, вс
вс1823:30+30юз411405 0.0 1006459
02:30+29зюз5115320 0.0 1006519
05:30+27зюз385946 0.0 1008300
08:30+33з45365 0.0 1009736
11:30+40зюз13153 0.0 10062269
14:30+41юз561255 0.0 10033631
17:30+39зсз341334 0.0 10021257
20:30+35в221855 0.0 100476
19 апреля, пн
пн1923:30+32зюз483942 0.0 1005395
02:30+29зюз255815 0.0 1004210
05:30+28зюз236491 0.0 1006111
08:30+35зсз222013 0.0 1007644
11:30+40зсз4785 0.0 10054112
14:30+42зсз47628 0.0 10015366
17:30+41ссз57687 0.0 10001660
20:30+36ссз1275 0.0 1002120
20 апреля, вт
вт2023:30+31зюз49350 0.0 1004330
02:30+29юз37430 0.0 1003228
05:30+27юз24500 0.0 1004121
08:30+34зюз352810 0.0 1006557
11:30+42зсз2581 0.0 10043723
14:30+43юв15618 0.0 10015098
17:30+41ю32738 0.0 9991058
20:30+34ю4103210 0.0 1003607